Tracking 19570 objects as of 22-Feb-2019
HD Live streaming from Space Station
objects crossing your sky now

SL-18 DEB

Track SL-18 DEB now!
10-day predictions


NORAD ID: 28292
Int'l Code: 1993-014V
Perigee: 670.4 km
Apogee: 885.7 km
Inclination: 75.8 °
Period: 100.3 minutes
Semi major axis: 7149 km
RCS: 0.016 m2 (small)
Launch date: March 25, 1993
Source: Commonwealth of Independent States (former USSR) (CIS)
Launch site: PLESETSK MISSILE AND SPACE COMPLEX (PKMTR)

Note: This is SATELLITE DEBRIS
aabbcc
Your satellite tracking list
Your tracking list is empty




NASA's NSSDC Master Catalog

Two Line Element Set (TLE):
1 28292U 93014V   19052.90412320 +.00000262 +00000-0 +83605-4 0  9994
2 28292 075.7602 134.2250 0150634 209.7225 149.5319 14.36248816299527
Source of the keplerian elements: AFSPC